Вернуться в каталог

STARLINK-11309

АктивенСвязьVLEO
NORAD 61202·PAYLOAD·🇺🇸 United States

Запущен Sep 20, 2024 с Vandenberg Space Force Base

Loading…

Ближайшие Пролёты (ближайшие 24 часа)

TLE

СвежийSource: CelesTrak SupGP

Эпоха: Sep 14, 2026, 20:43 UTC

1 61202C 24171C   26257.86368056 -.00071044  00000+0 -58508-3 0  2573
2 61202  53.1559 323.7791 0001098  86.0827 129.7789 15.69750333    18

Отслеживайте STARLINK-11309 в реальном времени с AllMySat

Download on the App Store